OPS 4682 DEB, 19664

Orbit data source: Space-Track

OPS 4682 DEB, 19664 is space debris in LEO originally from a launch on Sat, 03 Apr 1965 UTC launched from the Air Force Western Test Range (AFWTR). Debris objects in space refer to the collection of defunct objects orbiting the Earth. Examples of debris include non-operational satellites, rocket bodies, and fragments generated from explosions, collisions, or faulty payload assembly.

Loading next visibility...
Identifier
19664, 1965-027AX
Orbit
LEO
Country
Flag of USUS
Related business
Manufacturer
Unknown
Mission
Spacecraft
Bus & Motor
Unknown
Mass
Unknown
Launch date (UTC)
1965-04-03 (61 years ago)
Launch vehicle
Unknown
Launch site
Air Force Western Test Range (AFWTR)
Object type
Payload
Rocket body
Debris
Shape & HBR
Unknown shape, 0.1 m
Radar Cross Section
Medium (>0.1 m² and <1 m²)

Expand to show TLE details & history
Last TLE update: 14 hours ago

TLE from 14 hours ago
0 OPS 4682 DEB
1 19664U 65027AX  26235.60567338 -.00000336  00000-0 -10769-2 0  9991
2 19664  90.2347 359.3022 0023419  12.9995   0.4165 13.03957545 65325
Epoch: 2026-08-23T14:32Z
TLE epoch observation values (Epoch: 2026-08-23T14:32:10.180Z)
Latitude
13.38317°
Longitude
169.3049°
Altitude
1,230.913 km
Speed
7.249 km/s
True Right ascension
23h 56m 59s
True Declination
13° 18' 39"
Sunlit
Object was in full shadow at epoch
Visualization orbit readout
Latitude
Unknown
Longitude
Unknown
Altitude
Unknown
Speed
Unknown
Apparent Right ascension
Unknown
Apparent Declination
Unknown
Sunlit
N/A
Visualization observer readout
Local Sidereal Time
19:31:25
Azimuth
Unknown
Elevation
Unknown
Doppler factor
Unknown
Orbital elements
Apogee altitude
1,261.591 km
Perigee altitude
1,225.891 km
Semi-major axis
7,621.878 km
Eccentricity
0.00234
Inclination
90.2347°
RAAN
359.3022°
Arg. of periapsis
12.9995°
True anomaly
0.41846°
Mean anomaly
0.4165°
Eccentric anomaly
0.41748°
Mean motion
3.26175 °/min
Orbital period
110.37 mins
BSTAR
-0.0010769
Loading maneuver chart data...
Computing Atmospheric mass density...
Loading historical data...
Loading historical data...
Loading historical data...
Loading historical data...
Loading historical data...
Loading historical data...
Loading historical data...

Documentation

Showing up to 5 results
|